Ouarzazate, Morocco

5:37 AM WET on May 28, 2017 (GMT +0000)
Ouarzazate

Weather History for GMMZ - November, 2012

Change the Weather History Date:

Monday, November 5, 2012

  Actual Average Record
Temperature  
Mean Temperature 72 °F -  
Max Temperature 85 °F 68 °F - ()
Min Temperature 59 °F 43 °F - ()
Cooling Degree Days 7    
Growing Degree Days 22 (Base 50)    
Moisture  
Dew Point 45 °F    
Average Humidity 40    
Maximum Humidity 63    
Minimum Humidity 10    
Precipitation  
Precipitation 0.00 in 0.02 in - ()
Sea Level Pressure  
Sea Level Pressure 30.14 in    
Wind  
Wind Speed 2 mph ()    
Max Wind Speed 20 mph    
Max Gust Speed -    
Visibility 7.7 miles    
Events      
T = Trace of Precipitation, MM = Missing Value Source: Averaged Metar Reports

Daily Weather History Graph

Daily Weather History Graph

Search for Another Location

Airport or City:

Trip Planner

Search our weather history database for the weather conditions in past years. The results will help you decide how hot, cold, wet, or windy it might be!

Date:

Astronomy

Nov. 05, 2012 Rise Set
Actual Time 6:46 AM WET 5:35 PM WET
Civil Twilight 6:21 AM WET 6:00 PM WET
Nautical Twilight 5:52 AM WET 6:29 PM WET
Astronomical Twilight 5:23 AM WET 6:58 PM WET
Moon 10:59 PM WET (11/5) 11:56 AM WET (11/5)
Length of Visible Light 11h 39m
Length of Day
10h 49m
Waning Gibbous, 65% of the Moon is Illuminated
Nov 5
Waning Gibbous
Nov 7
Last Quarter
Nov 13
New
Nov 20
First Quarter
Nov 28
Full

Hourly Weather History & Observations

Time (WET) Temp. Dew Point Humidity Pressure Visibility Wind Dir Wind Speed Gust Speed Precip Events Conditions
12:00 AM 69 °F 47 °F 34%  in 12 mi Calm Calm - -   Partly Cloudy
12:00 AM 69.8 °F 17.6 °F 14% 30.18 in 6.2 mi Calm Calm - N/A   Scattered Clouds
1:00 AM 68.0 °F 46.4 °F 46% 30.18 in 6.2 mi Variable 1.2 mph - N/A   Scattered Clouds
2:00 AM 64.4 °F 46.4 °F 52% 30.15 in 6.2 mi Calm Calm - N/A   Scattered Clouds
3:00 AM 67 °F 46 °F 35%  in 12 mi WSW 1.2 mph - -   Partly Cloudy
3:00 AM 66.2 °F 44.6 °F 46% 30.15 in 6.2 mi Variable 1.2 mph - N/A   Scattered Clouds
4:00 AM 64.4 °F 46.4 °F 52% 30.15 in 6.2 mi Variable 2.3 mph - N/A   Scattered Clouds
5:00 AM 62.6 °F 46.4 °F 55% 30.15 in 6.2 mi Calm Calm - N/A   Scattered Clouds
6:00 AM 62 °F 45 °F 43%  in 12 mi SW 1.2 mph - -   Scattered Clouds
6:00 AM 60.8 °F 44.6 °F 55% 30.15 in 6.2 mi Calm Calm - N/A   Partly Cloudy
7:00 AM 59.0 °F 46.4 °F 63% 30.15 in 6.2 mi Calm Calm - N/A   Partly Cloudy
8:00 AM 60.8 °F 46.4 °F 59% 30.18 in 6.2 mi Calm Calm - N/A   Partly Cloudy
9:00 AM 66 °F 47 °F 40%  in 12 mi Calm Calm - -   Scattered Clouds
9:00 AM 66.2 °F 48.2 °F 52% 30.18 in 6.2 mi Calm Calm - N/A   Partly Cloudy
10:00 AM 71.6 °F 46.4 °F 41% 30.21 in 6.2 mi Calm Calm - N/A   Partly Cloudy
11:00 AM 75.2 °F 46.4 °F 36% 30.18 in 6.2 mi Variable 1.2 mph - N/A   Partly Cloudy
12:00 PM 79 °F 46 °F 20%  in 12 mi East 1.2 mph - -   Scattered Clouds
12:00 PM 78.8 °F 46.4 °F 32% 30.15 in 6.2 mi Variable 1.2 mph - N/A   Partly Cloudy
1:00 PM 82.4 °F 44.6 °F 26% 30.12 in 6.2 mi Calm Calm - N/A   Partly Cloudy
2:00 PM 84.2 °F 41.0 °F 22% 30.09 in 6.2 mi South 5.8 mph - N/A   Partly Cloudy
3:00 PM 85 °F 37 °F 10%  in 12 mi SW 11.5 mph - -   Scattered Clouds
3:00 PM 84.2 °F 37.4 °F 19% 30.09 in 6.2 mi SW 11.5 mph - N/A   Partly Cloudy
4:00 PM 84.2 °F 37.4 °F 19% 30.09 in 6.2 mi SSW 9.2 mph - N/A   Partly Cloudy
6:00 PM 77 °F 46 °F 22%  in 12 mi West 19.6 mph - -   Partly Cloudy
6:00 PM 77.0 °F 46.4 °F 34% 30.09 in 6.2 mi West 19.6 mph - N/A   Scattered Clouds
7:00 PM 69.8 °F 51.8 °F 53% 30.12 in 6.2 mi Calm Calm - N/A   Scattered Clouds
8:00 PM 69.8 °F 51.8 °F 53% 30.12 in 6.2 mi Variable 2.3 mph - N/A   Scattered Clouds
9:00 PM 70 °F 49 °F 36%  in 12 mi West 6.9 mph - -   Scattered Clouds
9:00 PM 69.8 °F 48.2 °F 46% 30.15 in 6.2 mi West 6.9 mph - N/A   Partly Cloudy
10:00 PM 66.2 °F 50.0 °F 56% 30.15 in 6.2 mi Variable 3.5 mph - N/A   Partly Cloudy
11:00 PM 66.2 °F 50.0 °F 56% 30.15 in 6.2 mi Calm Calm - N/A   Partly Cloudy